SCOUT X-4 DEB, 2986

Orbit data source: Space-Track

SCOUT X-4 DEB, 2986 is space debris in LEO originally from a launch on Thu, 04 Jun 1964 UTC launched from the Air Force Western Test Range (AFWTR). Debris objects in space refer to the collection of defunct objects orbiting the Earth. Examples of debris include non-operational satellites, rocket bodies, and fragments generated from explosions, collisions, or faulty payload assembly.

Loading next visibility...
Identifier
2986, 1964-026E
Orbit
LEO
Country
Flag of USUS
Related business
Manufacturer
Unknown
Mission
Spacecraft
Bus & Motor
Unknown
Mass
Unknown
Launch date (UTC)
1964-06-04 (62 years ago)
Launch vehicle
Unknown
Launch site
Air Force Western Test Range (AFWTR)
Object type
Payload
Rocket body
Debris
Shape & HBR
Unknown shape, 0.1 m
Radar Cross Section
Medium (>0.1 m² and <1 m²)

Expand to show TLE details & history
Last TLE update: 9 hours ago

TLE from 9 hours ago
0 SCOUT X-4 DEB
1  2986U 64026E   26178.05291525  .00000207  00000-0  11873-3 0  9998
2  2986  90.4741 192.9000 0045518 191.3037 168.7128 14.06528976175857
Epoch: 2026-06-27T01:16Z
TLE epoch observation values (Epoch: 2026-06-27T01:16:11.877Z)
Latitude
-0.00001°
Longitude
-101.32209°
Altitude
906.681 km
Speed
7.382 km/s
True Right ascension
12h 51m 36s
True Declination
0° 00' 00"
Sunlit
Object was in daylight at epoch
Visualization orbit readout
Latitude
Unknown
Longitude
Unknown
Altitude
Unknown
Speed
Unknown
Apparent Right ascension
Unknown
Apparent Declination
Unknown
Sunlit
N/A
Visualization observer readout
Local Sidereal Time
21:47:37
Azimuth
Unknown
Elevation
Unknown
Doppler factor
Unknown
Orbital elements
Apogee altitude
901.226 km
Perigee altitude
835.258 km
Semi-major axis
7,246.379 km
Eccentricity
0.00455
Inclination
90.4741°
RAAN
192.9°
Arg. of periapsis
191.3037°
True anomaly
168.81432°
Mean anomaly
168.7128°
Eccentric anomaly
168.76362°
Mean motion
3.51853 °/min
Orbital period
102.32 mins
BSTAR
0.00011873
Loading maneuver chart data...
Computing Atmospheric mass density...
Loading historical data...
Loading historical data...
Loading historical data...
Loading historical data...
Loading historical data...
Loading historical data...
Loading historical data...

Documentation

Showing up to 5 results
|